EW6690 Weather Reports


time (UTC)temp
C
wind
direction
speed
KPH
gust
KPH
rain 1hr
cm
rain 24hr
cm
rain mn
cm
humidity
%
barometer
mb
20260507032402 11 22 0.0 0.0 0.00 0.00 0.00 89 1019.2
20260507031920 11 22 0.0 0.0 0.00 0.00 0.00 89 1019.2
20260507031759 11 22 0.0 0.0 0.00 0.00 0.00 89 1019.2
20260507030915 11 22 0.0 0.0 0.00 0.00 0.00 89 1019.1
20260507030400 11 22 0.0 0.0 0.00 0.00 0.00 88 1019.1
20260507025912 11 22 0.0 0.0 0.00 0.00 0.00 88 1019.1
20260507025400 11 22 0.0 0.0 0.00 0.00 0.00 89 1019.1
20260507024903 11 22 0.0 0.0 0.00 0.00 0.00 88 1019.1
20260507024437 11 22 0.0 0.0 0.00 0.00 0.00 88 1019.1
20260507023902 11 22 0.0 0.0 0.00 0.00 0.00 88 1019.1
20260507023746 11 22 0.0 0.0 0.00 0.00 0.00 88 1018.9
20260507022901 12 22 0.0 0.0 0.00 0.00 0.00 87 1019.0
20260507022431 12 22 0.0 0.0 0.00 0.00 0.00 87 1018.9
20260507021900 12 22 0.0 0.0 0.00 0.00 0.00 86 1019.0
20260507021424 12 22 0.0 0.0 0.00 0.00 0.00 86 1019.0
20260507020859 12 22 0.0 0.0 0.00 0.00 0.00 86 1019.0
20260507020420 12 22 0.0 0.0 0.00 0.00 0.00 85 1019.1
20260507015859 12 22 0.0 0.0 0.00 0.00 0.00 85 1019.1
20260507015412 12 22 0.0 0.0 0.00 0.00 0.00 85 1019.1
20260507014855 12 22 0.0 0.0 0.00 0.00 0.00 85 1019.0
20260507014702 12 22 0.0 0.0 0.00 0.00 0.00 85 1019.0
20260507014244 12 22 0.0 0.0 0.00 0.00 0.00 85 1019.0
20260507013403 12 22 0.0 0.0 0.00 0.00 0.00 84 1019.0
20260507012854 12 22 0.0 0.0 0.00 0.00 0.00 84 1019.0
20260507012353 12 22 0.0 0.0 0.00 0.00 0.00 85 1019.0
20260507011931 12 22 0.0 0.0 0.00 0.00 0.00 85 1019.0
20260507011818 12 22 0.0 0.0 0.00 0.00 0.00 85 1019.1
20260507011806 12 22 0.0 0.0 0.00 0.00 0.00 84 1019.0
20260507010948 12 22 0.0 0.0 0.00 0.00 0.00 84 1019.0
20260507010444 12 22 0.0 0.0 0.00 0.00 0.00 85 1019.0
20260507005359 12 22 0.0 0.0 0.00 0.00 0.00 85 1019.1
20260507004917 12 22 0.0 0.0 0.00 0.00 0.00 84 1019.1
20260507004751 12 22 0.0 0.0 0.00 0.00 0.00 85 1019.1
20260507003909 12 299 0.0 0.0 0.00 0.00 0.00 85 1019.2
20260507003352 12 299 0.0 0.0 0.00 0.00 0.00 85 1019.2
20260507003115 12 299 0.0 0.0 0.00 0.00 0.00 84 1019.2
20260507003111 12 299 0.0 0.0 0.00 0.00 0.00 85 1019.2
20260507002935 12 299 0.0 0.0 0.00 0.00 0.00 84 1019.2
20260507001439 12 295 0.0 0.0 0.00 0.00 0.00 85 1019.3
20260507000851 12 295 0.0 0.0 0.00 0.00 0.00 85 1019.2
20260507000438 12 295 0.0 0.0 0.00 0.00 0.00 85 1019.3
20260506235851 12 295 0.0 0.0 0.00 0.00 0.00 84 1019.3
20260506235424 12 295 0.0 0.0 0.00 0.00 0.00 85 1019.3
20260506234849 11 295 0.0 0.0 0.00 0.00 0.00 83 1019.3
20260506234418 12 295 0.0 0.0 0.00 0.00 0.00 83 1019.3
20260506233851 11 295 0.0 0.0 0.00 0.00 0.00 83 1019.3
20260506233408 11 298 0.0 0.0 0.00 0.00 0.00 84 1019.3
20260506232850 11 296 0.0 0.0 0.00 0.00 0.00 84 1019.3
20260506232655 11 296 0.0 0.0 0.00 0.00 0.00 85 1019.3
20260506231849 11 296 0.0 0.0 0.00 0.00 0.00 85 1019.3
20260506231355 11 296 0.0 0.0 0.00 0.00 0.00 85 1019.4
20260506230931 11 296 0.0 0.0 0.00 0.00 0.00 85 1019.3
20260506230351 11 299 0.0 0.0 0.00 0.00 0.00 85 1019.3
20260506230223 11 296 0.0 0.0 0.00 0.00 0.00 85 1019.3
20260506225351 11 296 0.0 0.0 0.00 0.00 0.00 86 1019.3
20260506224922 11 310 0.0 0.0 0.00 0.00 0.00 86 1019.3
20260506224351 11 211 0.0 0.0 0.00 0.00 0.00 85 1019.3
20260506223914 11 302 0.0 0.0 0.00 0.00 0.00 86 1019.4
20260506223350 11 302 0.0 0.0 0.00 0.00 0.00 87 1019.4
20260506222908 11 274 0.0 0.0 0.00 0.00 0.00 87 1019.4
20260506222353 11 271 0.0 0.0 0.00 0.00 0.00 87 1019.5
20260506221906 11 271 0.0 0.0 0.00 0.00 0.00 87 1019.5
20260506221349 11 271 0.0 0.0 0.00 0.00 0.00 87 1019.6
20260506220855 11 281 0.0 0.0 0.00 0.00 0.00 87 1019.5
20260506220427 11 309 0.0 0.0 0.00 0.00 0.00 88 1019.5
20260506215855 11 308 0.0 0.0 0.00 0.00 0.00 88 1019.6
20260506215422 11 308 0.0 0.0 0.00 0.00 0.00 89 1019.5
20260506214845 11 309 0.0 1.6 0.00 0.00 0.00 89 1019.5
20260506214417 11 311 0.0 1.6 0.00 0.00 0.00 89 1019.5
20260506213843 11 246 0.0 0.0 0.00 0.00 0.00 90 1019.5
20260506213413 11 284 0.0 0.0 0.00 0.00 0.00 90 1019.4
20260506212844 11 292 0.0 0.0 0.00 0.00 0.00 91 1019.5
20260506212827 11 290 0.0 0.0 0.00 0.00 0.00 91 1019.4
20260506211844 11 292 0.0 0.0 0.00 0.00 0.00 90 1019.5
20260506211401 11 293 0.0 0.0 0.00 0.00 0.00 91 1019.5
20260506210845 11 293 0.0 0.0 0.00 0.00 0.00 91 1019.4
20260506210400 11 272 0.0 0.0 0.00 0.00 0.00 91 1019.4
20260506205843 11 234 0.0 0.0 0.00 0.00 0.00 91 1019.4
20260506205642 11 234 0.0 0.0 0.00 0.00 0.00 91 1019.4
20260506205446 11 234 0.0 0.0 0.00 0.00 0.00 90 1019.4
20260506204349 11 233 0.0 0.0 0.00 0.00 0.00 90 1019.3
20260506204220 11 233 0.0 0.0 0.00 0.00 0.00 90 1019.3
20260506203344 11 233 0.0 0.0 0.00 0.00 0.00 90 1019.3
20260506203228 12 224 0.0 0.0 0.00 0.00 0.00 90 1019.3
20260506202341 11 107 0.0 0.0 0.00 0.00 0.00 90 1019.3
20260506201910 12 161 0.0 0.0 0.00 0.00 0.00 90 1019.3
20260506201341 11 107 0.0 0.0 0.00 0.00 0.00 90 1019.2
20260506200909 11 136 0.0 0.0 0.00 0.00 0.00 90 1019.2
20260506200341 11 200 0.0 0.0 0.00 0.00 0.00 90 1019.2
20260506195903 11 215 0.0 3.2 0.00 0.00 0.00 90 1019.2
20260506195337 11 194 0.0 3.2 0.00 0.00 0.00 90 1019.2
20260506195159 12 216 0.0 4.8 0.00 0.00 0.00 90 1019.1
20260506194338 12 209 0.0 4.8 0.00 0.00 0.00 90 1019.0
20260506193856 12 148 0.0 0.0 0.00 0.00 0.00 91 1019.0
20260506193337 12 157 0.0 0.0 0.00 0.00 0.00 91 1019.0
20260506192848 11 158 0.0 0.0 0.00 0.00 0.00 91 1019.0
20260506192336 11 180 0.0 0.0 0.00 0.00 0.00 91 1019.0
20260506191842 11 149 0.0 0.0 0.00 0.00 0.00 91 1019.0
20260506191335 11 190 0.0 0.0 0.00 0.00 0.00 92 1019.0
20260506191124 11 210 0.0 1.6 0.00 0.00 0.00 92 1019.1
20260506190411 11 221 0.0 1.6 0.00 0.00 0.00 92 1019.1
20260506185834 11 201 0.0 1.6 0.00 0.00 0.00 92 1019.2
20260506185409 11 91 0.0 1.6 0.00 0.00 0.00 92 1019.1
20260506185228 11 203 0.0 1.6 0.00 0.00 0.00 93 1019.1
20260506184639 11 204 0.0 1.6 0.00 0.00 0.00 94 1019.1
20260506184438 11 205 0.0 1.6 0.00 0.00 0.00 93 1019.1
20260506183358 11 212 0.0 0.0 0.00 0.00 0.00 94 1018.9
20260506182833 11 212 0.0 0.0 0.00 0.00 0.00 95 1018.7
20260506182351 11 186 0.0 0.0 0.00 0.00 0.00 95 1018.7
20260506181831 11 149 0.0 0.0 0.00 0.00 0.00 95 1018.7
20260506181348 11 142 0.0 0.0 0.00 0.00 0.00 95 1018.7
20260506180835 11 142 0.0 0.0 0.00 0.00 0.00 95 1018.7
20260506180755 11 192 0.0 0.0 0.00 0.00 0.00 96 1018.7
20260506180446 11 142 0.0 0.0 0.00 0.00 0.00 95 1018.7
20260506175337 11 177 0.0 0.0 0.00 0.00 0.00 96 1018.7
20260506174913 11 219 0.0 0.0 0.00 0.00 0.00 96 1019.0
20260506174332 11 211 0.0 0.0 0.00 0.00 0.00 96 1018.9
20260506174022 11 217 0.0 0.0 0.00 0.00 0.00 96 1018.9
20260506173937 11 208 0.0 0.0 0.00 0.00 0.00 96 1018.9
20260506172901 11 205 0.0 0.0 0.00 0.00 0.00 96 1018.9
20260506172329 11 205 0.0 0.0 0.00 0.00 0.00 96 1019.0
20260506171858 11 320 0.0 0.0 0.00 0.00 0.00 96 1018.9
20260506171330 11 199 0.0 0.0 0.00 0.00 0.00 96 1018.7
20260506170852 11 212 0.0 0.0 0.00 0.00 0.00 96 1018.7
20260506170330 11 297 0.0 0.0 0.00 0.00 0.00 96 1018.6
20260506170139 11 219 0.0 0.0 0.00 0.00 0.00 96 1018.7
20260506165329 10 214 0.0 0.0 0.00 0.00 0.00 96 1018.6
20260506165133 10 194 0.0 0.0 0.00 0.00 0.00 96 1018.4
20260506164329 10 209 0.0 0.0 0.00 0.00 0.00 96 1018.2
20260506163836 10 211 0.0 0.0 0.00 0.00 0.00 96 1018.3
20260506163725 11 196 0.0 0.0 0.00 0.00 0.00 96 1018.2
20260506162832 10 204 0.0 0.0 0.00 0.00 0.00 96 1018.2
20260506162511 10 206 0.0 0.0 0.00 0.00 0.00 96 1018.1
20260506162429 10 205 0.0 0.0 0.00 0.00 0.00 96 1018.1
20260506161401 11 198 0.0 0.0 0.00 0.00 0.00 96 1018.3
20260506160827 10 214 0.0 0.0 0.00 0.00 0.00 96 1018.3
20260506160400 10 207 0.0 0.0 0.00 0.00 0.00 96 1018.5
20260506155827 10 218 0.0 0.0 0.00 0.00 0.00 96 1018.4
20260506155353 10 282 0.0 0.0 0.00 0.00 0.00 96 1018.4
20260506154825 10 200 0.0 0.0 0.00 0.00 0.00 96 1018.4
20260506154351 10 200 0.0 0.0 0.00 0.00 0.00 96 1018.3
20260506153826 10 200 0.0 0.0 0.00 0.00 0.00 96 1018.3
20260506153341 10 198 0.0 0.0 0.00 0.00 0.00 96 1018.2
20260506153032 10 215 0.0 0.0 0.00 0.00 0.00 96 1018.1
20260506152901 10 198 0.0 0.0 0.00 0.00 0.00 96 1018.2
20260506151827 10 225 0.0 0.0 0.00 0.00 0.00 96 1018.2
20260506151331 10 234 0.0 0.0 0.00 0.00 0.00 96 1018.2
20260506151211 10 234 0.0 0.0 0.00 0.00 0.00 96 1018.3
20260506150616 10 235 0.0 0.0 0.00 0.00 0.00 96 1018.3
20260506145856 10 235 0.0 0.0 0.00 0.00 0.00 96 1018.4
20260506145325 10 302 0.0 0.0 0.00 0.00 0.00 96 1018.4
20260506144856 10 306 0.0 0.0 0.00 0.00 0.00 96 1018.2
20260506144320 10 149 0.0 0.0 0.00 0.00 0.00 96 1018.1
20260506143849 10 123 0.0 0.0 0.00 0.00 0.00 96 1018.1
20260506143320 10 123 0.0 0.0 0.00 0.00 0.00 96 1017.9
20260506142847 10 213 0.0 0.0 0.00 0.00 0.00 96 1018.0
20260506142321 10 202 0.0 0.0 0.00 0.00 0.00 96 1017.9
20260506141838 10 207 0.0 0.0 0.00 0.00 0.00 96 1018.1
20260506141322 11 194 0.0 0.0 0.00 0.00 0.00 96 1018.0
20260506140835 11 191 0.0 0.0 0.00 0.00 0.00 96 1018.3
20260506140716 11 190 0.0 0.0 0.00 0.00 0.00 96 1018.1
20260506135839 11 136 0.0 0.0 0.00 0.00 0.00 96 1018.0
20260506135402 11 211 0.0 0.0 0.00 0.00 0.00 96 1018.2
20260506134821 11 190 0.0 0.0 0.00 0.00 0.00 95 1018.0
20260506134356 11 194 0.0 0.0 0.00 0.00 0.00 95 1017.9
20260506133822 11 214 0.0 0.0 0.00 0.00 0.00 95 1017.9
20260506133807 11 225 0.0 0.0 0.00 0.00 0.00 95 1017.9
20260506132820 11 227 0.0 0.0 0.00 0.00 0.00 95 1017.7
20260506132350 11 161 0.0 0.0 0.00 0.00 0.00 95 1017.4
20260506131819 11 186 0.0 0.0 0.00 0.00 0.00 95 1017.6
20260506131344 11 151 0.0 0.0 0.00 0.00 0.00 95 1017.5
20260506131213 11 151 0.0 0.0 0.00 0.00 0.00 95 1017.6
20260506130337 11 150 0.0 0.0 0.00 0.00 0.00 95 1017.6
20260506125817 11 150 0.0 0.0 0.00 0.00 0.00 95 1017.5
20260506125330 11 151 0.0 0.0 0.00 0.00 0.00 95 1017.4
20260506125214 11 150 0.0 0.0 0.00 0.00 0.00 95 1017.4
20260506124329 11 151 0.0 0.0 0.00 0.00 0.00 94 1017.3
20260506123816 11 150 0.0 0.0 0.00 0.00 0.00 94 1017.3
20260506123315 11 208 0.0 0.0 0.00 0.00 0.00 94 1017.2
20260506122850 11 209 0.0 0.0 0.00 0.00 0.00 94 1017.2
20260506122555 11 209 0.0 0.0 0.00 0.00 0.00 94 1017.3
20260506122405 11 209 0.0 0.0 0.00 0.00 0.00 94 1017.3
20260506121310 11 208 0.0 0.0 0.00 0.00 0.00 94 1017.2
20260506120839 11 211 0.0 0.0 0.00 0.00 0.00 94 1017.2
20260506120657 11 211 0.0 0.0 0.00 0.00 0.00 93 1017.1
20260506115834 11 211 0.0 0.0 0.00 0.00 0.00 93 1017.1
20260506115309 11 211 0.0 0.0 0.00 0.00 0.00 93 1017.1
20260506115114 11 211 0.0 0.0 0.00 0.00 0.00 93 1017.1
20260506114710 11 211 0.0 0.0 0.00 0.00 0.00 93 1017.2
20260506113819 11 211 0.0 0.0 0.00 0.00 0.00 93 1017.1
20260506113654 11 212 0.0 0.0 0.00 0.00 0.00 92 1017.1
20260506112814 11 212 0.0 0.0 0.00 0.00 0.00 92 1017.1
20260506112306 11 212 0.0 0.0 0.00 0.00 0.00 92 1017.1
20260506111818 11 212 0.0 0.0 0.00 0.00 0.00 92 1017.1
20260506111647 11 212 0.0 0.0 0.00 0.00 0.00 91 1017.0
20260506110808 11 212 0.0 0.0 0.00 0.00 0.00 91 1017.0
20260506110337 11 212 0.0 0.0 0.00 0.00 0.00 91 1017.0
20260506105827 11 212 0.0 0.0 0.00 0.00 0.00 91 1017.0
20260506105331 11 212 0.0 0.0 0.00 0.00 0.00 91 1016.9
20260506104808 11 212 0.0 0.0 0.00 0.00 0.00 91 1016.8
20260506104552 11 212 0.0 0.0 0.00 0.00 0.00 91 1016.7
20260506104404 11 212 0.0 0.0 0.00 0.00 0.00 91 1016.7
20260506103553 11 212 0.0 0.0 0.00 0.00 0.00 91 1016.6
20260506103402 11 212 0.0 0.0 0.00 0.00 0.00 91 1016.7
20260506102313 11 212 0.0 0.0 0.00 0.00 0.00 91 1016.6
20260506101808 11 212 0.0 0.0 0.00 0.00 0.00 91 1016.5
20260506101311 11 212 0.0 0.0 0.00 0.00 0.00 91 1016.5
20260506101146 11 212 0.0 0.0 0.00 0.00 0.00 91 1016.4
20260506100553 11 212 0.0 0.0 0.00 0.00 0.00 91 1016.4
20260506095840 11 212 0.0 0.0 0.00 0.00 0.00 91 1016.3
20260506095307 11 212 0.0 0.0 0.00 0.00 0.00 91 1016.3
20260506094943 11 212 0.0 0.0 0.00 0.00 0.00 90 1016.3
20260506094905 11 212 0.0 0.0 0.00 0.00 0.00 90 1016.3
20260506094130 11 212 0.0 0.0 0.00 0.00 0.00 90 1016.2
20260506093305 11 217 0.0 0.0 0.00 0.00 0.00 90 1016.2
20260506092823 11 216 0.0 0.0 0.00 0.00 0.00 90 1016.2
20260506092308 11 215 0.0 0.0 0.00 0.00 0.00 90 1016.1
20260506091818 11 215 0.0 0.0 0.00 0.00 0.00 91 1016.1
20260506091305 11 215 0.0 0.0 0.00 0.00 0.00 91 1016.1
20260506090810 11 215 0.0 0.0 0.00 0.00 0.00 91 1016.1
20260506090304 12 215 0.0 0.0 0.00 0.00 0.00 91 1016.1
20260506085809 12 215 0.0 0.0 0.00 0.00 0.00 91 1016.0
20260506085657 12 215 0.0 0.0 0.00 0.00 0.00 91 1016.0
20260506084802 12 215 0.0 0.0 0.00 0.00 0.00 91 1015.9
20260506084333 12 215 0.0 0.0 0.00 0.00 0.00 91 1015.9
20260506083800 12 220 0.0 0.0 0.00 0.00 0.00 91 1015.8
20260506083328 12 220 0.0 0.0 0.00 0.00 0.00 92 1015.8
20260506082800 12 220 0.0 0.0 0.00 0.00 0.00 92 1015.8
20260506082634 12 220 0.0 0.0 0.00 0.00 0.00 92 1015.9
20260506081800 12 220 0.0 0.0 0.00 0.00 0.00 92 1015.8
20260506081318 12 220 0.0 0.0 0.00 0.00 0.00 92 1015.9
20260506080759 12 220 0.0 0.0 0.00 0.00 0.00 92 1015.8
20260506080310 12 220 0.0 0.0 0.00 0.00 0.00 92 1015.8
20260506073256 12 220 0.0 0.0 0.00 0.00 0.00 92 1015.8
20260506072833 12 220 0.0 0.0 0.00 0.00 0.00 92 1015.8
20260506072651 12 220 0.0 0.0 0.00 0.00 0.00 92 1015.7
20260506072124 12 220 0.0 0.0 0.00 0.00 0.00 92 1015.7
20260506071255 12 220 0.0 0.0 0.00 0.00 0.00 92 1015.7
20260506070823 12 220 0.0 0.0 0.00 0.00 0.00 92 1015.5
20260506070656 12 220 0.0 0.0 0.00 0.00 0.00 93 1015.5
20260506061801 11 272 0.0 0.0 0.00 0.00 0.00 92 1014.9
20260506061333 11 272 0.0 0.0 0.00 0.00 0.00 92 1014.9
20260506060754 11 272 0.0 0.0 0.00 0.00 0.00 92 1014.9
20260506060637 11 272 0.0 0.0 0.00 0.00 0.00 93 1014.8
20260506050750 11 272 0.0 0.0 0.00 0.00 0.00 91 1014.6
20260506050254 12 272 0.0 0.0 0.00 0.00 0.00 90 1014.6
20260506044644 12 272 0.0 0.0 0.00 0.00 0.00 89 1014.6
20260506043823 12 272 0.0 0.0 0.00 0.00 0.00 89 1014.6
20260506043248 12 272 0.0 0.0 0.00 0.00 0.00 88 1014.5
20260506042818 12 272 0.0 0.0 0.00 0.00 0.00 88 1014.5
20260506042246 12 272 0.0 0.0 0.00 0.00 0.00 87 1014.5
20260506041811 13 272 0.0 0.0 0.00 0.00 0.00 86 1014.5
20260506041248 13 272 0.0 0.0 0.00 0.00 0.00 84 1014.4
20260506040806 13 272 0.0 0.0 0.00 0.00 0.00 83 1014.4
20260506040641 14 272 0.0 0.0 0.00 0.00 0.00 82 1014.4
20260506035803 14 272 0.0 0.0 0.00 0.00 0.00 82 1014.2
20260506035246 14 272 0.0 0.0 0.00 0.00 0.00 81 1014.1
20260506034753 14 272 0.0 0.0 0.00 0.00 0.00 81 1014.2
20260506034247 15 272 0.0 0.0 0.00 0.00 0.00 80 1014.1
20260506033747 15 272 0.0 0.0 0.00 0.00 0.00 79 1014.0
20260506033324 15 271 0.0 0.0 0.00 0.00 0.00 78 1014.0